Location: Braden Valley Church
(38.0012°N, 88.6106°W)
Time: 07:32:47
(UTC+00:00)

Cosmos 44 Rocket - Visible Passes

Search period start: 26 June 2022 00:00
Search period end: 06 July 2022 00:00
Orbit: 659 x 730 km, 65.1° (Epoch: 25 June)

Date Brightness Start Highest point End Pass type
(mag) Time Alt. Az. Time Alt. Az. Time Alt. Az.
26 Jun 5.2 09:56:51 10° SSE 10:00:51 25° ESE 10:04:48 10° NE visible
28 Jun 4.7 09:38:07 10° S 09:42:29 33° ESE 09:46:48 10° NE visible
29 Jun 5.8 08:41:01 10° SE 08:43:01 12° ESE 08:44:59 10° E visible
30 Jun 4.2 09:19:33 10° S 09:24:09 44° ESE 09:28:43 10° NE visible
01 Jul 5.5 08:21:42 11° SE 08:24:36 17° ESE 08:27:38 10° ENE visible
01 Jul 3.6 10:00:55 10° SW 10:05:41 52° WNW 10:10:22 10° NNE visible
02 Jul 3.6 09:02:31 20° S 09:05:49 59° ESE 09:10:33 10° NE visible
03 Jul 5.0 08:04:33 19° SE 08:06:12 22° ESE 08:09:53 10° ENE visible
03 Jul 4.0 09:43:16 12° WSW 09:47:26 40° NW 09:51:57 10° NNE visible
04 Jul 3.3 08:45:15 32° SSW 08:47:31 79° ESE 08:52:18 10° NNE visible
05 Jul 4.5 07:47:11 28° SE 07:47:49 29° ESE 07:51:57 10° NE visible
05 Jul 4.4 09:25:53 15° WSW 09:29:14 31° NW 09:33:31 10° N visible
